Details for FedEx at KOAK




Go Back


Latest METAR
Local Time

KOAK 280053Z 29011KT 10SM FEW010 FEW250 19/12 A2992 RMK AO2 SLP132 T01940117

27/05/2018, 18:28:36

Description
Results
FedEx Logo
Number of Pilots based at KOAK
0 Pilots Based here
Number of FedEx Flights Departed from KOAK
0 Flights Departed
Number of FedEx Flights Arrived at KOAK
0 Flights Arrived
Number of FedEx Schedules Departing from KOAK
116 Schedules
Number of FedEx Schedules Arriving at KOAK
120 Schedules
Number of FedEx Schedules Departing from KOAK availible today
11 Schedules Today
Number of FedEx Schedules Arriving at KOAK availible today
17 Schedules Today
Average Landing Rate at KOAK
-271 fpm
FedEx Average Landing Rate at KOAK
0 fpm
Total Fuel Purchased at KOAK by FedEx
0.00 kgs / 0.00 lbs

Pilots Based at KOAK


Pilot ID
Pilot Name
Pilot Rank
No. of Flights
No. of Flying Hours
There are no pilots assigned to this hub!   Will you be the first?
Content